| time (UTC) | temp F | wind direction | speed knots | gust knots | rain 1hr in | rain 24hr in | rain mn in | humidity % | barometer mb |
| 20260505084042 | 48 | 157 | 3.5 | 6.1 | 0.00 | 0.00 | 0.00 | 65 | 1011.8 |
| 20260505083542 | 48 | 165 | 3.5 | 7.0 | 0.00 | 0.00 | 0.00 | 66 | 1011.8 |
| 20260505083042 | 48 | 153 | 3.5 | 7.8 | 0.00 | 0.00 | 0.00 | 69 | 1011.8 |
| 20260505082542 | 48 | 155 | 5.2 | 8.7 | 0.00 | 0.00 | 0.00 | 69 | 1011.8 |
| 20260505082042 | 48 | 161 | 6.1 | 8.7 | 0.00 | 0.00 | 0.00 | 70 | 1011.8 |
| 20260505081542 | 47 | 142 | 4.3 | 10.4 | 0.00 | 0.00 | 0.00 | 71 | 1011.7 |
| 20260505081042 | 47 | 153 | 3.5 | 11.3 | 0.00 | 0.00 | 0.00 | 72 | 1011.8 |
| 20260505080542 | 47 | 168 | 6.1 | 11.3 | 0.00 | 0.00 | 0.00 | 73 | 1011.7 |
| 20260505080042 | 47 | 148 | 6.1 | 11.3 | 0.00 | 0.00 | 0.00 | 77 | 1011.8 |
| 20260505075542 | 46 | 147 | 6.1 | 11.3 | 0.00 | 0.00 | 0.00 | 78 | 1011.8 |
| 20260505075042 | 46 | 171 | 1.7 | 8.7 | 0.00 | 0.00 | 0.00 | 81 | 1011.8 |
| 20260505074542 | 46 | 159 | 6.1 | 10.4 | 0.00 | 0.00 | 0.00 | 81 | 1011.8 |
| 20260505074042 | 46 | 171 | 5.2 | 10.4 | 0.00 | 0.00 | 0.00 | 83 | 1011.8 |
| 20260505073542 | 46 | 151 | 4.3 | 9.6 | 0.00 | 0.00 | 0.00 | 83 | 1011.8 |
| 20260505073042 | 46 | 162 | 3.5 | 10.4 | 0.00 | 0.00 | 0.00 | 85 | 1011.9 |
| 20260505072542 | 46 | 182 | 7.0 | 10.4 | 0.00 | 0.00 | 0.00 | 85 | 1011.8 |
| 20260505072042 | 46 | 151 | 4.3 | 10.4 | 0.00 | 0.00 | 0.00 | 85 | 1011.8 |
| 20260505071542 | 46 | 165 | 6.1 | 10.4 | 0.00 | 0.00 | 0.00 | 84 | 1011.9 |
| 20260505071042 | 46 | 178 | 4.3 | 10.4 | 0.00 | 0.00 | 0.00 | 83 | 1011.9 |
| 20260505070542 | 46 | 183 | 6.1 | 11.3 | 0.00 | 0.00 | 0.00 | 82 | 1012.0 |
| 20260505070042 | 46 | 184 | 7.0 | 11.3 | 0.00 | 0.00 | 0.00 | 81 | 1011.9 |
| 20260505065542 | 47 | 154 | 5.2 | 11.3 | 0.00 | 0.00 | 0.00 | 80 | 1012.0 |
| 20260505065042 | 47 | 154 | 4.3 | 11.3 | 0.00 | 0.00 | 0.00 | 78 | 1012.1 |
| 20260505064542 | 47 | 157 | 7.0 | 11.3 | 0.00 | 0.00 | 0.00 | 78 | 1012.1 |
| 20260505064042 | 47 | 154 | 7.0 | 13.0 | 0.00 | 0.00 | 0.00 | 77 | 1012.1 |
| 20260505063542 | 47 | 178 | 7.8 | 13.0 | 0.00 | 0.00 | 0.00 | 76 | 1012.1 |
| 20260505063042 | 47 | 168 | 5.2 | 12.2 | 0.00 | 0.00 | 0.00 | 76 | 1012.1 |
| 20260505062542 | 47 | 161 | 8.7 | 13.0 | 0.00 | 0.00 | 0.00 | 77 | 1012.1 |
| 20260505062042 | 47 | 155 | 5.2 | 13.0 | 0.00 | 0.00 | 0.00 | 77 | 1012.1 |
| 20260505061542 | 47 | 176 | 5.2 | 12.2 | 0.00 | 0.00 | 0.00 | 78 | 1012.2 |
| 20260505061042 | 47 | 162 | 3.5 | 12.2 | 0.00 | 0.00 | 0.00 | 78 | 1012.2 |
| 20260505060542 | 47 | 168 | 6.1 | 12.2 | 0.00 | 0.00 | 0.00 | 78 | 1012.2 |
| 20260505060042 | 47 | 179 | 4.3 | 12.2 | 0.00 | 0.00 | 0.00 | 79 | 1012.2 |
| 20260505055542 | 47 | 174 | 7.0 | 12.2 | 0.00 | 0.00 | 0.00 | 79 | 1012.1 |
| 20260505055042 | 47 | 157 | 6.1 | 12.2 | 0.00 | 0.00 | 0.00 | 78 | 1012.2 |
| 20260505054542 | 47 | 151 | 4.3 | 12.2 | 0.00 | 0.00 | 0.00 | 78 | 1012.2 |
| 20260505054042 | 48 | 159 | 7.8 | 12.2 | 0.00 | 0.00 | 0.00 | 78 | 1012.2 |
| 20260505053542 | 48 | 173 | 5.2 | 16.5 | 0.00 | 0.00 | 0.00 | 77 | 1012.2 |
| 20260505053042 | 48 | 162 | 7.0 | 16.5 | 0.00 | 0.00 | 0.00 | 75 | 1012.1 |
| 20260505052542 | 48 | 191 | 8.7 | 14.8 | 0.00 | 0.00 | 0.00 | 76 | 1012.1 |
| 20260505052042 | 48 | 186 | 6.1 | 14.8 | 0.00 | 0.00 | 0.00 | 76 | 1012.1 |
| 20260505051542 | 48 | 175 | 7.0 | 14.8 | 0.00 | 0.00 | 0.00 | 78 | 1012.1 |
| 20260505051042 | 48 | 162 | 7.8 | 17.4 | 0.00 | 0.00 | 0.00 | 77 | 1012.1 |
| 20260505050542 | 48 | 159 | 6.1 | 18.2 | 0.00 | 0.00 | 0.00 | 79 | 1012.1 |
| 20260505041542 | 49 | 171 | 10.4 | 15.6 | 0.00 | 0.00 | 0.00 | 77 | 1011.9 |
| 20260505041042 | 50 | 166 | 7.8 | 15.6 | 0.00 | 0.00 | 0.00 | 74 | 1011.8 |
| 20260505040542 | 51 | 171 | 7.8 | 13.0 | 0.00 | 0.00 | 0.00 | 70 | 1011.6 |
| 20260505040042 | 51 | 162 | 7.8 | 15.6 | 0.00 | 0.00 | 0.00 | 68 | 1011.5 |
| 20260505035542 | 52 | 145 | 6.1 | 16.5 | 0.00 | 0.00 | 0.00 | 65 | 1011.5 |
| 20260505035042 | 52 | 165 | 10.4 | 16.5 | 0.00 | 0.00 | 0.00 | 61 | 1011.4 |
| 20260505034542 | 53 | 204 | 8.7 | 16.5 | 0.00 | 0.00 | 0.00 | 58 | 1011.2 |
| 20260505034042 | 53 | 194 | 12.2 | 17.4 | 0.00 | 0.00 | 0.00 | 57 | 1011.1 |
| 20260505033542 | 53 | 204 | 13.9 | 18.2 | 0.00 | 0.00 | 0.00 | 55 | 1011.1 |
| 20260505033042 | 53 | 212 | 13.9 | 18.2 | 0.00 | 0.00 | 0.00 | 57 | 1011.1 |
| 20260505032542 | 54 | 208 | 13.0 | 17.4 | 0.00 | 0.00 | 0.00 | 57 | 1011.0 |
| 20260505032042 | 54 | 204 | 9.6 | 14.8 | 0.00 | 0.00 | 0.00 | 51 | 1011.0 |
| 20260505031542 | 55 | 211 | 9.6 | 14.8 | 0.00 | 0.00 | 0.00 | 48 | 1011.0 |
| 20260505031042 | 55 | 210 | 7.0 | 12.2 | 0.00 | 0.00 | 0.00 | 45 | 1010.9 |
| 20260505030542 | 54 | 201 | 5.2 | 8.7 | 0.00 | 0.00 | 0.00 | 47 | 1010.9 |
| 20260505030042 | 55 | 196 | 4.3 | 7.8 | 0.00 | 0.00 | 0.00 | 48 | 1010.9 |
| 20260505025542 | 55 | 178 | 4.3 | 7.8 | 0.00 | 0.00 | 0.00 | 47 | 1010.9 |
| 20260505025042 | 55 | 185 | 2.6 | 7.0 | 0.00 | 0.00 | 0.00 | 47 | 1010.9 |
| 20260505024542 | 55 | 163 | 3.5 | 7.0 | 0.00 | 0.00 | 0.00 | 47 | 1010.9 |
| 20260505024042 | 55 | 165 | 2.6 | 7.0 | 0.00 | 0.00 | 0.00 | 47 | 1010.9 |
| 20260505023542 | 55 | 171 | 4.3 | 6.1 | 0.00 | 0.00 | 0.00 | 47 | 1010.8 |
| 20260505023042 | 55 | 175 | 2.6 | 6.1 | 0.00 | 0.00 | 0.00 | 47 | 1010.7 |
| 20260505022542 | 56 | 197 | 4.3 | 6.1 | 0.00 | 0.00 | 0.00 | 46 | 1010.7 |
| 20260505022042 | 56 | 197 | 2.6 | 7.0 | 0.00 | 0.00 | 0.00 | 46 | 1010.7 |
| 20260505021542 | 56 | 202 | 3.5 | 7.0 | 0.00 | 0.00 | 0.00 | 45 | 1010.7 |
| 20260505021042 | 56 | 204 | 2.6 | 8.7 | 0.00 | 0.00 | 0.00 | 45 | 1010.7 |
| 20260505020542 | 57 | 201 | 3.5 | 8.7 | 0.00 | 0.00 | 0.00 | 44 | 1010.6 |
| 20260505020042 | 57 | 200 | 5.2 | 8.7 | 0.00 | 0.00 | 0.00 | 44 | 1010.6 |
| 20260505015542 | 57 | 197 | 3.5 | 5.2 | 0.00 | 0.00 | 0.00 | 44 | 1010.7 |
| 20260505015042 | 57 | 191 | 2.6 | 5.2 | 0.00 | 0.00 | 0.00 | 45 | 1010.7 |
| 20260505014043 | 57 | 189 | 2.6 | 7.0 | 0.00 | 0.00 | 0.00 | 44 | 1010.7 |
| 20260505013542 | 57 | 191 | 4.3 | 7.8 | 0.00 | 0.00 | 0.00 | 44 | 1010.7 |
| 20260505013042 | 57 | 197 | 2.6 | 7.8 | 0.00 | 0.00 | 0.00 | 44 | 1010.7 |
| 20260505012542 | 57 | 186 | 4.3 | 8.7 | 0.00 | 0.00 | 0.00 | 43 | 1010.7 |
| 20260505012042 | 57 | 186 | 5.2 | 8.7 | 0.00 | 0.00 | 0.00 | 44 | 1010.8 |
| 20260505011542 | 58 | 179 | 5.2 | 10.4 | 0.00 | 0.00 | 0.00 | 43 | 1010.8 |
| 20260505011042 | 58 | 162 | 4.3 | 10.4 | 0.00 | 0.00 | 0.00 | 43 | 1010.8 |
| 20260505010542 | 58 | 184 | 3.5 | 10.4 | 0.00 | 0.00 | 0.00 | 43 | 1010.9 |
| 20260505010042 | 59 | 177 | 5.2 | 10.4 | 0.00 | 0.00 | 0.00 | 42 | 1010.9 |
| 20260505005542 | 60 | 151 | 4.3 | 9.6 | 0.00 | 0.00 | 0.00 | 39 | 1010.9 |
| 20260505005042 | 60 | 164 | 5.2 | 7.0 | 0.00 | 0.00 | 0.00 | 36 | 1010.9 |
| 20260505004542 | 61 | 176 | 2.6 | 5.2 | 0.00 | 0.00 | 0.00 | 37 | 1010.9 |
| 20260505004042 | 61 | 168 | 0.9 | 4.3 | 0.00 | 0.00 | 0.00 | 34 | 1010.9 |
| 20260505003542 | 61 | 16 | 0.0 | 2.6 | 0.00 | 0.00 | 0.00 | 36 | 1010.9 |
| 20260505003042 | 61 | 213 | 0.0 | 4.3 | 0.00 | 0.00 | 0.00 | 35 | 1010.9 |
| 20260505002542 | 61 | 251 | 1.7 | 4.3 | 0.00 | 0.00 | 0.00 | 34 | 1011.0 |
| 20260505002042 | 61 | 242 | 1.7 | 4.3 | 0.00 | 0.00 | 0.00 | 36 | 1011.0 |
| 20260505001542 | 62 | 317 | 0.9 | 4.3 | 0.00 | 0.00 | 0.00 | 35 | 1011.0 |
| 20260505001042 | 61 | 273 | 1.7 | 5.2 | 0.00 | 0.00 | 0.00 | 37 | 1011.0 |
| 20260505000542 | 61 | 343 | 0.9 | 8.7 | 0.00 | 0.00 | 0.00 | 34 | 1011.0 |
| 20260505000042 | 61 | 333 | 6.1 | 8.7 | 0.00 | 0.00 | 0.00 | 34 | 1011.0 |
| 20260504235542 | 61 | 321 | 1.7 | 7.8 | 0.00 | 0.00 | 0.00 | 36 | 1011.1 |
| 20260504235042 | 61 | 326 | 2.6 | 7.8 | 0.00 | 0.00 | 0.00 | 34 | 1011.1 |
| 20260504234542 | 62 | 340 | 2.6 | 7.0 | 0.00 | 0.00 | 0.00 | 34 | 1011.0 |
| 20260504234042 | 62 | 349 | 1.7 | 7.8 | 0.00 | 0.00 | 0.00 | 32 | 1011.1 |
| 20260504233542 | 63 | 321 | 3.5 | 8.7 | 0.00 | 0.00 | 0.00 | 32 | 1011.0 |
| 20260504233042 | 63 | 315 | 4.3 | 8.7 | 0.00 | 0.00 | 0.00 | 33 | 1011.0 |
| 20260504232542 | 64 | 331 | 5.2 | 11.3 | 0.00 | 0.00 | 0.00 | 31 | 1011.0 |
| 20260504232042 | 65 | 325 | 7.8 | 11.3 | 0.00 | 0.00 | 0.00 | 29 | 1011.0 |
| 20260504231542 | 65 | 313 | 4.3 | 8.7 | 0.00 | 0.00 | 0.00 | 31 | 1011.0 |
| 20260504231042 | 65 | 339 | 5.2 | 8.7 | 0.00 | 0.00 | 0.00 | 30 | 1011.0 |
| 20260504230542 | 64 | 262 | 0.9 | 6.1 | 0.00 | 0.00 | 0.00 | 34 | 1011.1 |
| 20260504230042 | 64 | 15 | 0.9 | 6.1 | 0.00 | 0.00 | 0.00 | 34 | 1011.1 |
| 20260504225542 | 63 | 353 | 3.5 | 11.3 | 0.00 | 0.00 | 0.00 | 32 | 1011.1 |
| 20260504225042 | 64 | 329 | 4.3 | 11.3 | 0.00 | 0.00 | 0.00 | 32 | 1011.1 |
| 20260504224542 | 64 | 332 | 2.6 | 10.4 | 0.00 | 0.00 | 0.00 | 32 | 1011.1 |
| 20260504224042 | 63 | 325 | 7.0 | 10.4 | 0.00 | 0.00 | 0.00 | 35 | 1011.1 |
| 20260504223542 | 63 | 345 | 5.2 | 10.4 | 0.00 | 0.00 | 0.00 | 32 | 1011.2 |
| 20260504223042 | 62 | 341 | 7.8 | 10.4 | 0.00 | 0.00 | 0.00 | 36 | 1011.2 |
| 20260504222542 | 61 | 343 | 5.2 | 11.3 | 0.00 | 0.00 | 0.00 | 35 | 1011.2 |
| 20260504222042 | 62 | 349 | 7.8 | 12.2 | 0.00 | 0.00 | 0.00 | 34 | 1011.2 |
| 20260504221542 | 61 | 348 | 6.1 | 12.2 | 0.00 | 0.00 | 0.00 | 36 | 1011.2 |
| 20260504221042 | 61 | 28 | 5.2 | 15.6 | 0.00 | 0.00 | 0.00 | 37 | 1011.2 |
| 20260504220542 | 62 | 339 | 7.0 | 15.6 | 0.00 | 0.00 | 0.00 | 36 | 1011.2 |
| 20260504220042 | 63 | 332 | 7.0 | 15.6 | 0.00 | 0.00 | 0.00 | 37 | 1011.2 |
| 20260504215542 | 64 | 327 | 4.3 | 11.3 | 0.00 | 0.00 | 0.00 | 36 | 1011.3 |
| 20260504215042 | 63 | 356 | 4.3 | 7.0 | 0.00 | 0.00 | 0.00 | 34 | 1011.4 |
| 20260504214542 | 63 | 325 | 4.3 | 7.0 | 0.00 | 0.00 | 0.00 | 34 | 1011.5 |
| 20260504214042 | 63 | 340 | 0.9 | 7.8 | 0.00 | 0.00 | 0.00 | 33 | 1011.6 |
| 20260504213542 | 63 | 282 | 2.6 | 7.8 | 0.00 | 0.00 | 0.00 | 34 | 1011.6 |
| 20260504213042 | 64 | 252 | 1.7 | 5.2 | 0.00 | 0.00 | 0.00 | 33 | 1011.6 |
| 20260504212542 | 64 | 311 | 2.6 | 7.8 | 0.00 | 0.00 | 0.00 | 36 | 1011.6 |
| 20260504212042 | 64 | 255 | 0.9 | 11.3 | 0.00 | 0.00 | 0.00 | 34 | 1011.5 |
| 20260504211542 | 64 | 219 | 3.5 | 11.3 | 0.00 | 0.00 | 0.00 | 33 | 1011.5 |
| 20260504211042 | 64 | 300 | 5.2 | 9.6 | 0.00 | 0.00 | 0.00 | 33 | 1011.4 |
| 20260504210542 | 64 | 339 | 0.9 | 9.6 | 0.00 | 0.00 | 0.00 | 33 | 1011.6 |
| 20260504205542 | 67 | 299 | 1.7 | 8.7 | 0.00 | 0.00 | 0.00 | 29 | 1011.6 |
| 20260504205042 | 67 | 329 | 1.7 | 7.8 | 0.00 | 0.00 | 0.00 | 28 | 1011.6 |
| 20260504204542 | 66 | 214 | 1.7 | 11.3 | 0.00 | 0.00 | 0.00 | 28 | 1011.6 |
| 20260504204042 | 67 | 214 | 7.8 | 11.3 | 0.00 | 0.00 | 0.00 | 28 | 1011.6 |
| 20260504203542 | 67 | 154 | 0.9 | 4.3 | 0.00 | 0.00 | 0.00 | 27 | 1011.6 |
| 20260504203042 | 68 | 75 | 1.7 | 4.3 | 0.00 | 0.00 | 0.00 | 26 | 1011.6 |
| 20260504202542 | 69 | 198 | 1.7 | 7.0 | 0.00 | 0.00 | 0.00 | 25 | 1011.7 |
| 20260504202042 | 70 | 297 | 0.9 | 7.0 | 0.00 | 0.00 | 0.00 | 26 | 1011.7 |
| 20260504201542 | 71 | 265 | 2.6 | 7.0 | 0.00 | 0.00 | 0.00 | 28 | 1011.7 |
| 20260504201042 | 71 | 189 | 4.3 | 8.7 | 0.00 | 0.00 | 0.00 | 27 | 1011.7 |
| 20260504200542 | 70 | 210 | 5.2 | 9.6 | 0.00 | 0.00 | 0.00 | 28 | 1011.7 |
| 20260504200042 | 70 | 189 | 4.3 | 9.6 | 0.00 | 0.00 | 0.00 | 26 | 1011.7 |
| 20260504195542 | 69 | 146 | 0.9 | 8.7 | 0.00 | 0.00 | 0.00 | 28 | 1011.8 |
| 20260504195042 | 69 | 190 | 5.2 | 11.3 | 0.00 | 0.00 | 0.00 | 29 | 1011.9 |
| 20260504194542 | 69 | 203 | 5.2 | 11.3 | 0.00 | 0.00 | 0.00 | 29 | 1011.9 |
| 20260504194042 | 69 | 206 | 5.2 | 11.3 | 0.00 | 0.00 | 0.00 | 30 | 1011.8 |
| 20260504193542 | 68 | 142 | 4.3 | 9.6 | 0.00 | 0.00 | 0.00 | 29 | 1012.0 |
| 20260504193042 | 68 | 157 | 3.5 | 11.3 | 0.00 | 0.00 | 0.00 | 30 | 1012.0 |
| 20260504192542 | 68 | 216 | 4.3 | 11.3 | 0.00 | 0.00 | 0.00 | 31 | 1012.0 |
| 20260504192042 | 68 | 145 | 2.6 | 10.4 | 0.00 | 0.00 | 0.00 | 29 | 1012.0 |
| 20260504191542 | 68 | 177 | 6.1 | 10.4 | 0.00 | 0.00 | 0.00 | 31 | 1012.0 |
| 20260504191042 | 68 | 129 | 5.2 | 10.4 | 0.00 | 0.00 | 0.00 | 31 | 1012.1 |
| 20260504190542 | 68 | 227 | 3.5 | 9.6 | 0.00 | 0.00 | 0.00 | 30 | 1012.2 |
| 20260504190042 | 67 | 173 | 5.2 | 9.6 | 0.00 | 0.00 | 0.00 | 32 | 1012.3 |
| 20260504185542 | 67 | 189 | 3.5 | 10.4 | 0.00 | 0.00 | 0.00 | 32 | 1012.3 |
| 20260504185042 | 67 | 218 | 6.1 | 10.4 | 0.00 | 0.00 | 0.00 | 30 | 1012.4 |
| 20260504184542 | 67 | 155 | 5.2 | 12.2 | 0.00 | 0.00 | 0.00 | 31 | 1012.4 |
| 20260504184042 | 67 | 201 | 2.6 | 12.2 | 0.00 | 0.00 | 0.00 | 31 | 1012.5 |
| 20260504183542 | 67 | 171 | 2.6 | 9.6 | 0.00 | 0.00 | 0.00 | 32 | 1012.5 |
| 20260504183042 | 66 | 130 | 4.3 | 12.2 | 0.00 | 0.00 | 0.00 | 31 | 1012.6 |
| 20260504182542 | 67 | 182 | 7.0 | 12.2 | 0.00 | 0.00 | 0.00 | 33 | 1012.7 |
| 20260504182042 | 66 | 154 | 5.2 | 11.3 | 0.00 | 0.00 | 0.00 | 31 | 1012.7 |
| 20260504181542 | 66 | 184 | 6.1 | 11.3 | 0.00 | 0.00 | 0.00 | 31 | 1012.7 |
| 20260504181042 | 66 | 220 | 4.3 | 11.3 | 0.00 | 0.00 | 0.00 | 31 | 1012.7 |
| 20260504180542 | 66 | 167 | 5.2 | 12.2 | 0.00 | 0.00 | 0.00 | 31 | 1012.8 |
| 20260504180042 | 66 | 178 | 3.5 | 12.2 | 0.00 | 0.00 | 0.00 | 31 | 1012.8 |
| 20260504175542 | 66 | 188 | 2.6 | 8.7 | 0.00 | 0.00 | 0.00 | 32 | 1012.8 |
| 20260504175042 | 66 | 164 | 5.2 | 9.6 | 0.00 | 0.00 | 0.00 | 32 | 1012.8 |
| 20260504174542 | 65 | 180 | 5.2 | 13.0 | 0.00 | 0.00 | 0.00 | 33 | 1012.9 |
| 20260504174042 | 65 | 150 | 4.3 | 13.0 | 0.00 | 0.00 | 0.00 | 35 | 1012.9 |
| 20260504173542 | 65 | 177 | 7.0 | 9.6 | 0.00 | 0.00 | 0.00 | 33 | 1013.0 |
| 20260504173042 | 65 | 209 | 4.3 | 9.6 | 0.00 | 0.00 | 0.00 | 34 | 1013.0 |
| 20260504172542 | 64 | 169 | 5.2 | 9.6 | 0.00 | 0.00 | 0.00 | 35 | 1013.0 |
| 20260504172042 | 63 | 154 | 3.5 | 9.6 | 0.00 | 0.00 | 0.00 | 34 | 1013.1 |
| 20260504171542 | 63 | 145 | 5.2 | 10.4 | 0.00 | 0.00 | 0.00 | 34 | 1013.1 |
| 20260504171042 | 63 | 194 | 4.3 | 10.4 | 0.00 | 0.00 | 0.00 | 35 | 1013.1 |
| 20260504170542 | 63 | 196 | 3.5 | 15.6 | 0.00 | 0.00 | 0.00 | 37 | 1013.1 |
| 20260504151042 | 55 | 165 | 2.6 | 9.6 | 0.00 | 0.00 | 0.00 | 50 | 1013.3 |
| 20260504150542 | 54 | 172 | 5.2 | 7.8 | 0.00 | 0.00 | 0.00 | 51 | 1013.3 |
| 20260504141042 | 52 | 188 | 5.2 | 8.7 | 0.00 | 0.00 | 0.00 | 50 | 1013.3 |
| 20260504140542 | 52 | 183 | 3.5 | 8.7 | 0.00 | 0.00 | 0.00 | 49 | 1013.3 |
| 20260504130350 | 51 | 186 | 3.5 | 7.8 | 0.00 | 0.00 | 0.00 | 49 | 1013.2 |
| 20260504110350 | 51 | 176 | 5.2 | 13.0 | 0.00 | 0.00 | 0.00 | 50 | 1013.2 |
| 20260504100351 | 52 | 188 | 6.1 | 12.2 | 0.00 | 0.00 | 0.00 | 42 | 1013.3 |